Salisbury, MD

1:47 AM EST on February 07, 2016 (GMT -0500)
Salisbury-Ocean City Wicomico Regional

Weather History for KSBY - March, 2014

Change the Weather History Date:

Monday, March 17, 2014

  Actual Average Record
Temperature  
Mean Temperature 31 °F 45 °F  
Max Temperature 32 °F 55 °F 87 °F (1945)
Min Temperature 30 °F 35 °F 16 °F (1911)
Degree Days  
Heating Degree Days 34 20  
Month to date heating degree days 417 381  
Since 1 July heating degree days 3557 3686  
Cooling Degree Days 0 0  
Month to date cooling degree days 0 0  
Year to date cooling degree days 0 0  
Moisture  
Dew Point 27 °F    
Average Humidity 85    
Maximum Humidity 92    
Minimum Humidity 78    
Precipitation  
Precipitation 0.18 in 0.15 in 2.05 in (1923)
Month to date precipitation 1.12 2.36  
Year to date precipitation 5.10 9.32  
Snow  
Snow 0.00 in 0.00 in 4.00 in (1931)
Month to date snowfall 2.0 0.6  
Since 1 July snowfall 13.5 8.9  
Snow Depth -    
Sea Level Pressure  
Sea Level Pressure 29.98 in    
Wind  
Wind Speed 12 mph (NNE)    
Max Wind Speed 22 mph    
Max Gust Speed 29 mph    
Visibility 3 miles    
Events Rain , Snow    
T = Trace of Precipitation, MM = Missing Value Source: NWS Daily Summary

Daily Weather History Graph

Daily Weather History Graph

Search for Another Location

Airport or City:

Trip Planner

Search our weather history database for the weather conditions in past years. The results will help you decide how hot, cold, wet, or windy it might be!

Date:

Astronomy

Mar. 17, 2014 Rise Set
Actual Time 7:10 AM EDT 7:11 PM EDT
Civil Twilight 6:43 AM EDT 7:37 PM EDT
Nautical Twilight 6:13 AM EDT 8:08 PM EDT
Astronomical Twilight 5:42 AM EDT 8:39 PM EDT
Moon 8:24 PM EDT (3/17) 7:25 AM EDT (3/17)
Length of Visible Light 12h 53m
Length of Day
12h 00m
Full, 99% of the Moon is Illuminated
Mar 17
Full
Mar 23
Last Quarter
Mar 30
New
Apr 7
First Quarter
Apr 15
Full

Hourly Weather History & Observations

Time (EDT) Temp. Windchill Dew Point Humidity Pressure Visibility Wind Dir Wind Speed Gust Speed Precip Events Conditions
12:30 AM 33.8 °F 26.4 °F 28.4 °F 81% 30.02 in 4.0 mi NE 9.2 mph - 0.03 in Rain Light Freezing Rain
12:37 AM 33.8 °F 25.3 °F 28.4 °F 81% 30.02 in 2.5 mi NNE 11.5 mph - 0.04 in Snow Light Snow
12:47 AM 33.8 °F 24.8 °F 28.4 °F 81% 30.01 in 1.5 mi NNE 12.7 mph - 0.05 in Snow Light Snow
12:54 AM 32.0 °F 22.5 °F 28.9 °F 88% 30.02 in 1.2 mi NNE 12.7 mph - 0.06 in Snow Light Snow
1:03 AM 32.0 °F 21.6 °F 28.4 °F 87% 30.01 in 0.8 mi NE 15.0 mph 20.7 mph 0.01 in Snow Light Snow
1:46 AM 32.0 °F 22.5 °F 28.4 °F 87% 30.01 in 1.2 mi NE 12.7 mph 20.7 mph 0.03 in Snow Light Snow
1:54 AM 32.0 °F 21.6 °F 28.0 °F 85% 30.01 in 1.0 mi NE 15.0 mph 21.9 mph 0.04 in Snow Light Snow
2:04 AM 32.0 °F 20.8 °F 28.4 °F 87% 29.99 in 0.8 mi NE 17.3 mph - 0.01 in Snow Light Snow
2:44 AM 30.2 °F 20.8 °F 28.4 °F 93% 29.98 in 1.0 mi NNE 11.5 mph - 0.06 in Snow Light Snow
2:51 AM 30.2 °F 20.2 °F 28.4 °F 93% 29.98 in 0.8 mi NE 12.7 mph - 0.06 in Snow Light Snow
2:54 AM 30.9 °F 20.7 °F 28.0 °F 89% 29.98 in 0.8 mi NNE 13.8 mph 19.6 mph 0.07 in Snow Light Snow
3:01 AM 30.2 °F 21.3 °F 28.4 °F 93% 29.97 in 1.0 mi NNE 10.4 mph 19.6 mph 0.00 in Snow Light Snow
3:12 AM 30.2 °F 20.8 °F 28.4 °F 93% 29.96 in 0.8 mi NNE 11.5 mph 18.4 mph 0.01 in Snow Light Snow
3:54 AM 30.0 °F 20.5 °F 27.0 °F 88% 29.96 in 1.0 mi North 11.5 mph - 0.04 in Snow Light Snow
4:03 AM 30.2 °F 20.8 °F 26.6 °F 86% 29.94 in 1.8 mi NNE 11.5 mph 20.7 mph 0.01 in Snow Light Snow
4:18 AM 30.2 °F 20.2 °F 26.6 °F 86% 29.94 in 2.0 mi NNE 12.7 mph 21.9 mph 0.01 in Snow Light Snow
4:26 AM 30.2 °F 20.2 °F 26.6 °F 86% 29.94 in 2.0 mi North 12.7 mph - 0.01 in Snow Light Snow
4:54 AM 30.0 °F 20.0 °F 26.1 °F 85% 29.94 in 1.8 mi North 12.7 mph - 0.01 in Snow Light Snow
5:00 AM 30.2 °F 20.8 °F 26.6 °F 86% 29.93 in 2.0 mi North 11.5 mph - 0.00 in Snow Light Snow
5:08 AM 30.2 °F 20.2 °F 26.6 °F 86% 29.93 in 2.5 mi North 12.7 mph - 0.00 in Snow Light Snow
5:23 AM 30.2 °F 20.8 °F 26.6 °F 86% 29.93 in 1.8 mi North 11.5 mph - 0.01 in Snow Light Snow
5:33 AM 30.2 °F 20.2 °F 26.6 °F 86% 29.94 in 2.5 mi North 12.7 mph - 0.01 in Snow Light Snow
5:43 AM 30.2 °F 20.2 °F 26.6 °F 86% 29.94 in 1.8 mi North 12.7 mph - 0.01 in Snow Light Snow
5:54 AM 30.9 °F 22.2 °F 27.0 °F 85% 29.95 in 1.0 mi NNE 10.4 mph - 0.01 in Snow Light Snow
5:57 AM 30.2 °F 21.3 °F 26.6 °F 86% 29.94 in 0.8 mi NNE 10.4 mph - 0.00 in Snow Light Snow
6:07 AM 30.2 °F 21.3 °F 26.6 °F 86% 29.94 in 1.0 mi North 10.4 mph - 0.01 in Snow Light Snow
6:23 AM 30.2 °F 21.3 °F 28.4 °F 93% 29.93 in 0.8 mi NNE 10.4 mph - 0.01 in Snow Light Snow
6:30 AM 30.2 °F 21.3 °F 28.4 °F 93% 29.94 in 1.0 mi NNE 10.4 mph - 0.01 in Snow Light Snow
6:54 AM 30.9 °F 22.2 °F 27.0 °F 85% 29.95 in 1.0 mi NNE 10.4 mph - 0.02 in Snow Light Snow
7:07 AM 30.2 °F 21.9 °F 28.4 °F 93% 29.95 in 1.2 mi NNE 9.2 mph - 0.00 in Snow Light Snow
7:49 AM 32.0 °F 21.6 °F 28.4 °F 87% 29.95 in 1.0 mi NE 15.0 mph 23.0 mph 0.00 in Snow Light Snow
7:54 AM 32.0 °F 22.1 °F 28.0 °F 85% 29.96 in 1.0 mi NE 13.8 mph - 0.00 in Snow Light Snow
8:14 AM 32.0 °F 21.6 °F 28.4 °F 87% 29.97 in 1.2 mi NE 15.0 mph 23.0 mph 0.00 in Snow Light Snow
8:27 AM 32.0 °F 20.5 °F 26.6 °F 80% 29.97 in 2.0 mi NE 18.4 mph 24.2 mph 0.00 in Snow Light Snow
8:29 AM 32.0 °F 21.2 °F 26.6 °F 80% 29.97 in 1.8 mi NE 16.1 mph 24.2 mph 0.00 in Snow Light Snow
8:49 AM 32.0 °F 22.1 °F 26.6 °F 80% 29.95 in 2.5 mi NE 13.8 mph 23.0 mph 0.00 in Snow Light Snow
8:54 AM 32.0 °F 22.5 °F 27.0 °F 82% 29.96 in 2.5 mi NE 12.7 mph - 0.00 in Snow Light Snow
8:58 AM 32.0 °F 22.1 °F 26.6 °F 80% 29.95 in 3.0 mi NNE 13.8 mph - 0.00 in Snow Light Snow
9:05 AM 30.2 °F 20.2 °F 26.6 °F 86% 29.96 in 2.5 mi NNE 12.7 mph - 0.00 in Snow Light Snow
9:31 AM 30.2 °F 19.8 °F 26.6 °F 86% 29.97 in 2.5 mi NNE 13.8 mph - 0.00 in Snow Light Snow
9:42 AM 30.2 °F 20.8 °F 26.6 °F 86% 29.96 in 3.0 mi NNE 11.5 mph 21.9 mph 0.00 in Snow Light Snow
9:54 AM 30.9 °F 21.2 °F 26.1 °F 82% 29.97 in 4.0 mi NNE 12.7 mph 18.4 mph 0.00 in   Overcast
10:05 AM 30.2 °F 19.8 °F 26.6 °F 86% 29.96 in 2.0 mi NNE 13.8 mph - 0.00 in Snow Light Snow
10:51 AM 30.2 °F 21.3 °F 26.6 °F 86% 29.98 in 1.5 mi North 10.4 mph - 0.00 in Snow Light Snow
10:54 AM 30.9 °F 21.7 °F 27.0 °F 85% 29.99 in 1.5 mi NNE 11.5 mph - 0.00 in Snow Light Snow
11:14 AM 32.0 °F 22.5 °F 26.6 °F 80% 29.96 in 2.0 mi North 12.7 mph - 0.00 in Snow Light Snow
11:54 AM 30.9 °F 21.2 °F 26.1 °F 82% 29.98 in 2.5 mi North 12.7 mph - 0.00 in Snow Light Snow
12:39 PM 32.0 °F 22.5 °F 24.8 °F 75% 29.97 in 1.5 mi North 12.7 mph - 0.00 in Snow Light Snow
12:54 PM 30.9 °F 21.2 °F 25.0 °F 79% 29.99 in 1.5 mi North 12.7 mph - 0.00 in Snow Light Snow
1:54 PM 30.0 °F 20.5 °F 25.0 °F 82% 30.00 in 1.5 mi North 11.5 mph 21.9 mph 0.00 in Snow Light Snow
2:01 PM 30.2 °F 19.8 °F 24.8 °F 80% 29.99 in 1.2 mi NNE 13.8 mph 19.6 mph 0.00 in Snow Light Snow
2:26 PM 30.2 °F 21.3 °F 24.8 °F 80% 29.99 in 2.0 mi NNE 10.4 mph 21.9 mph 0.00 in Snow Light Snow
2:41 PM 30.2 °F 18.9 °F 24.8 °F 80% 29.99 in 3.0 mi NNE 16.1 mph - 0.00 in   Overcast
2:54 PM 30.9 °F 21.2 °F 25.0 °F 79% 29.99 in 2.0 mi North 12.7 mph - 0.00 in   Overcast
3:42 PM 30.2 °F 21.9 °F 24.8 °F 80% 30.00 in 10.0 mi NNE 9.2 mph 18.4 mph 0.00 in   Overcast
3:54 PM 30.9 °F 23.5 °F 24.1 °F 76% 30.01 in 10.0 mi NNE 8.1 mph - 0.00 in   Overcast
4:31 PM 30.2 °F 20.8 °F 24.8 °F 80% 29.99 in 2.0 mi NNE 11.5 mph - 0.00 in Snow Light Snow
4:38 PM 30.2 °F 21.3 °F 24.8 °F 80% 29.98 in 1.8 mi NNE 10.4 mph - 0.00 in Snow Light Snow
4:54 PM 30.0 °F 21.1 °F 25.0 °F 82% 29.99 in 2.0 mi NE 10.4 mph - 0.00 in Snow Light Snow
5:03 PM 30.2 °F 21.3 °F 24.8 °F 80% 29.98 in 2.0 mi NNE 10.4 mph - 0.00 in Snow Light Snow
5:25 PM 30.2 °F 20.2 °F 26.6 °F 86% 29.99 in 4.0 mi NNE 12.7 mph 18.4 mph 0.00 in Snow Light Snow
5:54 PM 32.0 °F 22.1 °F 26.1 °F 79% 30.01 in 9.0 mi NNE 13.8 mph - 0.00 in   Overcast
6:54 PM 32.0 °F 22.5 °F 26.1 °F 79% 30.02 in 10.0 mi NE 12.7 mph - N/A   Overcast
7:54 PM 32.0 °F 21.2 °F 26.1 °F 79% 30.02 in 10.0 mi NNE 16.1 mph 19.6 mph N/A   Overcast
8:22 PM 32.0 °F 22.5 °F 24.8 °F 75% 30.02 in 10.0 mi NE 12.7 mph - N/A   Overcast
8:54 PM 32.0 °F 22.1 °F 25.0 °F 75% 30.05 in 10.0 mi NE 13.8 mph - 0.00 in Snow Light Snow
9:54 PM 32.0 °F 23.6 °F 25.0 °F 75% 30.07 in 10.0 mi NNE 10.4 mph - 0.00 in   Overcast
10:07 PM 32.0 °F 23.6 °F 24.8 °F 75% 30.07 in 10.0 mi NNE 10.4 mph - N/A   Overcast
10:54 PM 30.9 °F 22.2 °F 24.1 °F 76% 30.07 in 7.0 mi NNE 10.4 mph - 0.00 in Snow Light Snow
11:54 PM 30.9 °F 22.2 °F 23.0 °F 72% 30.07 in 10.0 mi NNE 10.4 mph - 0.00 in   Overcast